owner,sensor,date,latitude,longitude,vertical_datum,sea_water_practical_salinity,qcFlag 
TABS,ioos:station:wmo:42046:1,2007-07-01T00:00:00Z,27.8903,-94.0367,2.0,35.76,11111222 
TABS,ioos:station:wmo:42046:1,2007-07-01T00:30:00Z,27.8903,-94.0367,2.0,35.77,11111222 
TABS,ioos:station:wmo:42046:1,2007-07-01T01:00:00Z,27.8903,-94.0367,2.0,35.79,11111222 
TABS,ioos:station:wmo:42046:1,2007-07-01T01:30:00Z,27.8903,-94.0367,2.0,35.79,11111222 
TABS,ioos:station:wmo:42046:1,2007-07-01T02:00:00Z,27.8903,-94.0367,2.0,35.82,11111222 
TABS,ioos:station:wmo:42046:1,2007-07-01T02:30:00Z,27.8903,-94.0367,2.0,35.85,11111222 
TABS,ioos:station:wmo:42046:1,2007-07-01T03:00:00Z,27.8903,-94.0367,2.0,35.87,11111222 
TABS,ioos:station:wmo:42046:1,2007-07-01T03:30:00Z,27.8903,-94.0367,2.0,35.88,11111222 
TABS,ioos:station:wmo:42046:1,2007-07-01T04:00:00Z,27.8903,-94.0367,2.0,35.88,11111222 
TABS,ioos:station:wmo:42046:1,2007-07-01T04:30:00Z,27.8903,-94.0367,2.0,35.88,11111222 
TABS,ioos:station:wmo:42046:1,2007-07-01T05:00:00Z,27.8903,-94.0367,2.0,35.87,11111222 
TABS,ioos:station:wmo:42046:1,2007-07-01T05:30:00Z,27.8903,-94.0367,2.0,35.85,11111222 
TABS,ioos:station:wmo:42046:1,2007-07-01T06:00:00Z,27.8903,-94.0367,2.0,35.86,11111222 
TABS,ioos:station:wmo:42046:1,2007-07-01T06:30:00Z,27.8903,-94.0367,2.0,35.85,11111222 
TABS,ioos:station:wmo:42046:1,2007-07-01T07:00:00Z,27.8903,-94.0367,2.0,35.83,11111222 
TABS,ioos:station:wmo:42046:1,2007-07-01T07:30:00Z,27.8903,-94.0367,2.0,35.84,11111222 
TABS,ioos:station:wmo:42046:1,2007-07-01T08:00:00Z,27.8903,-94.0367,2.0,35.8,11111222 
TABS,ioos:station:wmo:42046:1,2007-07-01T08:30:00Z,27.8903,-94.0367,2.0,35.81,11111222 
TABS,ioos:station:wmo:42046:1,2007-07-01T09:00:00Z,27.8903,-94.0367,2.0,35.8,11111222 
TABS,ioos:station:wmo:42046:1,2007-07-01T09:30:00Z,27.8903,-94.0367,2.0,35.8,11111222 
TABS,ioos:station:wmo:42046:1,2007-07-01T10:00:00Z,27.8903,-94.0367,2.0,35.79,11111222 
TABS,ioos:station:wmo:42046:1,2007-07-01T10:30:00Z,27.8903,-94.0367,2.0,35.79,11111222 
TABS,ioos:station:wmo:42046:1,2007-07-01T11:00:00Z,27.8903,-94.0367,2.0,35.77,11111222 
TABS,ioos:station:wmo:42046:1,2007-07-01T11:30:00Z,27.8903,-94.0367,2.0,35.77,11111222 
TABS,ioos:station:wmo:42046:1,2007-07-01T12:00:00Z,27.8903,-94.0367,2.0,35.77,11111222 
TABS,ioos:station:wmo:42046:1,2007-07-01T12:30:00Z,27.8903,-94.0367,2.0,35.77,11111222 
TABS,ioos:station:wmo:42046:1,2007-07-01T13:00:00Z,27.8903,-94.0367,2.0,35.77,11111222 
TABS,ioos:station:wmo:42046:1,2007-07-01T13:30:00Z,27.8903,-94.0367,2.0,35.77,11111222 
TABS,ioos:station:wmo:42046:1,2007-07-01T14:00:00Z,27.8903,-94.0367,2.0,35.76,11111222 
TABS,ioos:station:wmo:42046:1,2007-07-01T14:30:00Z,27.8903,-94.0367,2.0,35.77,11111222 
TABS,ioos:station:wmo:42046:1,2007-07-01T15:00:00Z,27.8903,-94.0367,2.0,35.78,11111222 
TABS,ioos:station:wmo:42046:1,2007-07-01T15:30:00Z,27.8903,-94.0367,2.0,35.77,11111222 
TABS,ioos:station:wmo:42046:1,2007-07-01T16:00:00Z,27.8903,-94.0367,2.0,35.75,11111222 
TABS,ioos:station:wmo:42046:1,2007-07-01T16:30:00Z,27.8903,-94.0367,2.0,35.74,11111222 
TABS,ioos:station:wmo:42046:1,2007-07-01T17:00:00Z,27.8903,-94.0367,2.0,35.73,11111222 
TABS,ioos:station:wmo:42046:1,2007-07-01T17:30:00Z,27.8903,-94.0367,2.0,35.72,11111222 
TABS,ioos:station:wmo:42046:1,2007-07-01T18:00:00Z,27.8903,-94.0367,2.0,35.73,11111222 
TABS,ioos:station:wmo:42046:1,2007-07-01T18:30:00Z,27.8903,-94.0367,2.0,35.76,11111222 
TABS,ioos:station:wmo:42046:1,2007-07-01T19:00:00Z,27.8903,-94.0367,2.0,35.7,11111222 
TABS,ioos:station:wmo:42046:1,2007-07-01T19:30:00Z,27.8903,-94.0367,2.0,35.71,11111222 
TABS,ioos:station:wmo:42046:1,2007-07-01T20:00:00Z,27.8903,-94.0367,2.0,35.66,11111222 
TABS,ioos:station:wmo:42046:1,2007-07-01T20:30:00Z,27.8903,-94.0367,2.0,35.71,11111222 
TABS,ioos:station:wmo:42046:1,2007-07-01T21:00:00Z,27.8903,-94.0367,2.0,35.73,11111222 
TABS,ioos:station:wmo:42046:1,2007-07-01T21:30:00Z,27.8903,-94.0367,2.0,35.72,11111222 
TABS,ioos:station:wmo:42046:1,2007-07-01T22:00:00Z,27.8903,-94.0367,2.0,35.74,11111222 
TABS,ioos:station:wmo:42046:1,2007-07-01T22:30:00Z,27.8903,-94.0367,2.0,35.75,11111222 
TABS,ioos:station:wmo:42046:1,2007-07-01T23:00:00Z,27.8903,-94.0367,2.0,35.76,11111222 
TABS,ioos:station:wmo:42046:1,2007-07-01T23:30:00Z,27.8903,-94.0367,2.0,35.75,11111222 
TABS,ioos:station:wmo:42046:1,2007-07-02T00:00:00Z,27.8903,-94.0367,2.0,35.77,11111222 
TABS,ioos:station:wmo:42046:1,2007-07-02T00:30:00Z,27.8903,-94.0367,2.0,35.75,11111222 
TABS,ioos:station:wmo:42046:1,2007-07-02T01:00:00Z,27.8903,-94.0367,2.0,35.76,11111222 
TABS,ioos:station:wmo:42046:1,2007-07-02T01:30:00Z,27.8903,-94.0367,2.0,35.76,11111222 
TABS,ioos:station:wmo:42046:1,2007-07-02T02:00:00Z,27.8903,-94.0367,2.0,35.83,11111222 
TABS,ioos:station:wmo:42046:1,2007-07-02T02:30:00Z,27.8903,-94.0367,2.0,35.82,11111222 
TABS,ioos:station:wmo:42046:1,2007-07-02T03:00:00Z,27.8903,-94.0367,2.0,35.81,11111222 
TABS,ioos:station:wmo:42046:1,2007-07-02T03:30:00Z,27.8903,-94.0367,2.0,35.81,11111222 
TABS,ioos:station:wmo:42046:1,2007-07-02T04:00:00Z,27.8903,-94.0367,2.0,35.83,11111222 
TABS,ioos:station:wmo:42046:1,2007-07-02T04:30:00Z,27.8903,-94.0367,2.0,35.84,11111222 
TABS,ioos:station:wmo:42046:1,2007-07-02T05:00:00Z,27.8903,-94.0367,2.0,35.83,11111222 
TABS,ioos:station:wmo:42046:1,2007-07-02T06:00:00Z,27.8903,-94.0367,2.0,35.84,11111222 
TABS,ioos:station:wmo:42046:1,2007-07-02T06:30:00Z,27.8903,-94.0367,2.0,35.84,11111222 
TABS,ioos:station:wmo:42046:1,2007-07-02T07:00:00Z,27.8903,-94.0367,2.0,35.82,11111222 
TABS,ioos:station:wmo:42046:1,2007-07-02T07:30:00Z,27.8903,-94.0367,2.0,35.83,11111222 
TABS,ioos:station:wmo:42046:1,2007-07-02T08:00:00Z,27.8903,-94.0367,2.0,35.82,11111222 
TABS,ioos:station:wmo:42046:1,2007-07-02T08:30:00Z,27.8903,-94.0367,2.0,35.8,11111222 
TABS,ioos:station:wmo:42046:1,2007-07-02T09:00:00Z,27.8903,-94.0367,2.0,35.8,11111222 
TABS,ioos:station:wmo:42046:1,2007-07-02T09:30:00Z,27.8903,-94.0367,2.0,35.8,11111222 
TABS,ioos:station:wmo:42046:1,2007-07-02T10:00:00Z,27.8903,-94.0367,2.0,35.8,11111222 
TABS,ioos:station:wmo:42046:1,2007-07-02T10:30:00Z,27.8903,-94.0367,2.0,35.8,11111222 
TABS,ioos:station:wmo:42046:1,2007-07-02T11:00:00Z,27.8903,-94.0367,2.0,35.79,11111222 
TABS,ioos:station:wmo:42046:1,2007-07-02T11:30:00Z,27.8903,-94.0367,2.0,35.78,11111222 
TABS,ioos:station:wmo:42046:1,2007-07-02T12:00:00Z,27.8903,-94.0367,2.0,35.78,11111222 
TABS,ioos:station:wmo:42046:1,2007-07-02T12:30:00Z,27.8903,-94.0367,2.0,35.76,11111222 
TABS,ioos:station:wmo:42046:1,2007-07-02T13:00:00Z,27.8903,-94.0367,2.0,35.76,11111222 
TABS,ioos:station:wmo:42046:1,2007-07-02T13:30:00Z,27.8903,-94.0367,2.0,35.74,11111222 
TABS,ioos:station:wmo:42046:1,2007-07-02T14:00:00Z,27.8903,-94.0367,2.0,35.76,11111222 
TABS,ioos:station:wmo:42046:1,2007-07-02T14:30:00Z,27.8903,-94.0367,2.0,35.75,11111222 
TABS,ioos:station:wmo:42046:1,2007-07-02T15:00:00Z,27.8903,-94.0367,2.0,35.74,11111222 
TABS,ioos:station:wmo:42046:1,2007-07-02T15:30:00Z,27.8903,-94.0367,2.0,35.75,11111222 
TABS,ioos:station:wmo:42046:1,2007-07-02T16:00:00Z,27.8903,-94.0367,2.0,35.75,11111222 
TABS,ioos:station:wmo:42046:1,2007-07-02T16:30:00Z,27.8903,-94.0367,2.0,35.75,11111222 
TABS,ioos:station:wmo:42046:1,2007-07-02T17:00:00Z,27.8903,-94.0367,2.0,35.75,11111222 
TABS,ioos:station:wmo:42046:1,2007-07-02T17:30:00Z,27.8903,-94.0367,2.0,35.74,11111222 
TABS,ioos:station:wmo:42046:1,2007-07-02T18:00:00Z,27.8903,-94.0367,2.0,35.75,11111222 
TABS,ioos:station:wmo:42046:1,2007-07-02T18:30:00Z,27.8903,-94.0367,2.0,35.74,11111222 
TABS,ioos:station:wmo:42046:1,2007-07-02T19:00:00Z,27.8903,-94.0367,2.0,35.74,11111222 
TABS,ioos:station:wmo:42046:1,2007-07-02T19:30:00Z,27.8903,-94.0367,2.0,35.74,11111222 
TABS,ioos:station:wmo:42046:1,2007-07-02T20:00:00Z,27.8903,-94.0367,2.0,35.75,11111222 
TABS,ioos:station:wmo:42046:1,2007-07-02T20:30:00Z,27.8903,-94.0367,2.0,35.75,11111222 
TABS,ioos:station:wmo:42046:1,2007-07-02T21:30:00Z,27.8903,-94.0367,2.0,35.76,11111222 
TABS,ioos:station:wmo:42046:1,2007-07-02T22:00:00Z,27.8903,-94.0367,2.0,35.76,11111222 
TABS,ioos:station:wmo:42046:1,2007-07-02T22:30:00Z,27.8903,-94.0367,2.0,35.75,11111222 
TABS,ioos:station:wmo:42046:1,2007-07-02T23:00:00Z,27.8903,-94.0367,2.0,35.77,11111222 
TABS,ioos:station:wmo:42046:1,2007-07-02T23:30:00Z,27.8903,-94.0367,2.0,35.76,11111222 
TABS,ioos:station:wmo:42046:1,2007-07-03T00:00:00Z,27.8903,-94.0367,2.0,35.75,11111222 
TABS,ioos:station:wmo:42046:1,2007-07-03T00:30:00Z,27.8903,-94.0367,2.0,35.77,11111222 
TABS,ioos:station:wmo:42046:1,2007-07-03T01:00:00Z,27.8903,-94.0367,2.0,35.75,11111222 
TABS,ioos:station:wmo:42046:1,2007-07-03T01:30:00Z,27.8903,-94.0367,2.0,35.75,11111222 
TABS,ioos:station:wmo:42046:1,2007-07-03T02:00:00Z,27.8903,-94.0367,2.0,35.75,11111222 
TABS,ioos:station:wmo:42046:1,2007-07-03T02:30:00Z,27.8903,-94.0367,2.0,35.75,11111222 
TABS,ioos:station:wmo:42046:1,2007-07-03T03:00:00Z,27.8903,-94.0367,2.0,35.77,11111222 
TABS,ioos:station:wmo:42046:1,2007-07-03T03:30:00Z,27.8903,-94.0367,2.0,35.77,11111222 
TABS,ioos:station:wmo:42046:1,2007-07-03T04:00:00Z,27.8903,-94.0367,2.0,35.77,11111222 
TABS,ioos:station:wmo:42046:1,2007-07-03T04:30:00Z,27.8903,-94.0367,2.0,35.78,11111222 
TABS,ioos:station:wmo:42046:1,2007-07-03T05:00:00Z,27.8903,-94.0367,2.0,35.79,11111222 
TABS,ioos:station:wmo:42046:1,2007-07-03T05:30:00Z,27.8903,-94.0367,2.0,35.78,11111222 
TABS,ioos:station:wmo:42046:1,2007-07-03T06:00:00Z,27.8903,-94.0367,2.0,35.79,11111222 
TABS,ioos:station:wmo:42046:1,2007-07-03T06:30:00Z,27.8903,-94.0367,2.0,35.79,11111222 
TABS,ioos:station:wmo:42046:1,2007-07-03T07:00:00Z,27.8903,-94.0367,2.0,35.81,11111222 
TABS,ioos:station:wmo:42046:1,2007-07-03T07:30:00Z,27.8903,-94.0367,2.0,35.8,11111222 
TABS,ioos:station:wmo:42046:1,2007-07-03T08:00:00Z,27.8903,-94.0367,2.0,35.78,11111222 
TABS,ioos:station:wmo:42046:1,2007-07-03T08:30:00Z,27.8903,-94.0367,2.0,35.78,11111222 
TABS,ioos:station:wmo:42046:1,2007-07-03T09:00:00Z,27.8903,-94.0367,2.0,35.77,11111222 
TABS,ioos:station:wmo:42046:1,2007-07-03T09:30:00Z,27.8903,-94.0367,2.0,35.77,11111222 
TABS,ioos:station:wmo:42046:1,2007-07-03T10:00:00Z,27.8903,-94.0367,2.0,35.77,11111222 
TABS,ioos:station:wmo:42046:1,2007-07-03T10:30:00Z,27.8903,-94.0367,2.0,35.65,11111222 
TABS,ioos:station:wmo:42046:1,2007-07-03T11:00:00Z,27.8903,-94.0367,2.0,35.62,11111222 
TABS,ioos:station:wmo:42046:1,2007-07-03T11:30:00Z,27.8903,-94.0367,2.0,35.61,11111222 
TABS,ioos:station:wmo:42046:1,2007-07-03T12:00:00Z,27.8903,-94.0367,2.0,35.62,11111222 
TABS,ioos:station:wmo:42046:1,2007-07-03T12:30:00Z,27.8903,-94.0367,2.0,35.59,11111222 
TABS,ioos:station:wmo:42046:1,2007-07-03T13:00:00Z,27.8903,-94.0367,2.0,35.55,11111222 
TABS,ioos:station:wmo:42046:1,2007-07-03T13:30:00Z,27.8903,-94.0367,2.0,35.54,11111222 
TABS,ioos:station:wmo:42046:1,2007-07-03T14:00:00Z,27.8903,-94.0367,2.0,35.57,11111222 
TABS,ioos:station:wmo:42046:1,2007-07-03T14:30:00Z,27.8903,-94.0367,2.0,35.57,11111222 
TABS,ioos:station:wmo:42046:1,2007-07-03T15:00:00Z,27.8903,-94.0367,2.0,35.56,11111222 
TABS,ioos:station:wmo:42046:1,2007-07-03T15:30:00Z,27.8903,-94.0367,2.0,35.55,11111222 
TABS,ioos:station:wmo:42046:1,2007-07-03T16:00:00Z,27.8903,-94.0367,2.0,35.57,11111222 
TABS,ioos:station:wmo:42046:1,2007-07-03T16:30:00Z,27.8903,-94.0367,2.0,35.59,11111222 
TABS,ioos:station:wmo:42046:1,2007-07-03T17:00:00Z,27.8903,-94.0367,2.0,35.57,11111222 
TABS,ioos:station:wmo:42046:1,2007-07-03T17:30:00Z,27.8903,-94.0367,2.0,35.56,11111222 
TABS,ioos:station:wmo:42046:1,2007-07-03T18:00:00Z,27.8903,-94.0367,2.0,35.58,11111222 
TABS,ioos:station:wmo:42046:1,2007-07-03T18:30:00Z,27.8903,-94.0367,2.0,35.56,11111222 
TABS,ioos:station:wmo:42046:1,2007-07-03T19:00:00Z,27.8903,-94.0367,2.0,35.55,11111222 
TABS,ioos:station:wmo:42046:1,2007-07-03T19:30:00Z,27.8903,-94.0367,2.0,35.57,11111222 
TABS,ioos:station:wmo:42046:1,2007-07-03T20:00:00Z,27.8903,-94.0367,2.0,35.6,11111222 
TABS,ioos:station:wmo:42046:1,2007-07-03T20:30:00Z,27.8903,-94.0367,2.0,35.58,11111222 
TABS,ioos:station:wmo:42046:1,2007-07-03T21:00:00Z,27.8903,-94.0367,2.0,35.53,11111222 
TABS,ioos:station:wmo:42046:1,2007-07-03T21:30:00Z,27.8903,-94.0367,2.0,35.56,11111222 
TABS,ioos:station:wmo:42046:1,2007-07-03T22:00:00Z,27.8903,-94.0367,2.0,35.57,11111222 
TABS,ioos:station:wmo:42046:1,2007-07-03T22:30:00Z,27.8903,-94.0367,2.0,35.58,11111222 
TABS,ioos:station:wmo:42046:1,2007-07-03T23:00:00Z,27.8903,-94.0367,2.0,35.59,11111222 
TABS,ioos:station:wmo:42046:1,2007-07-03T23:30:00Z,27.8903,-94.0367,2.0,35.6,11111222 
TABS,ioos:station:wmo:42046:1,2007-07-04T00:00:00Z,27.8903,-94.0367,2.0,35.45,11111222 
TABS,ioos:station:wmo:42046:1,2007-07-04T00:30:00Z,27.8903,-94.0367,2.0,35.47,11111222 
TABS,ioos:station:wmo:42046:1,2007-07-04T01:00:00Z,27.8903,-94.0367,2.0,35.45,11111222 
TABS,ioos:station:wmo:42046:1,2007-07-04T01:30:00Z,27.8903,-94.0367,2.0,35.49,11111222 
TABS,ioos:station:wmo:42046:1,2007-07-04T02:00:00Z,27.8903,-94.0367,2.0,35.5,11111222 
TABS,ioos:station:wmo:42046:1,2007-07-04T02:30:00Z,27.8903,-94.0367,2.0,35.48,11111222 
TABS,ioos:station:wmo:42046:1,2007-07-04T03:00:00Z,27.8903,-94.0367,2.0,35.53,11111222 
TABS,ioos:station:wmo:42046:1,2007-07-04T03:30:00Z,27.8903,-94.0367,2.0,35.57,11111222 
TABS,ioos:station:wmo:42046:1,2007-07-04T04:00:00Z,27.8903,-94.0367,2.0,35.55,11111222 
TABS,ioos:station:wmo:42046:1,2007-07-04T04:30:00Z,27.8903,-94.0367,2.0,35.57,11111222 
TABS,ioos:station:wmo:42046:1,2007-07-04T05:00:00Z,27.8903,-94.0367,2.0,35.59,11111222 
TABS,ioos:station:wmo:42046:1,2007-07-04T05:30:00Z,27.8903,-94.0367,2.0,35.62,11111222 
TABS,ioos:station:wmo:42046:1,2007-07-04T06:00:00Z,27.8903,-94.0367,2.0,35.62,11111222 
TABS,ioos:station:wmo:42046:1,2007-07-04T06:30:00Z,27.8903,-94.0367,2.0,35.63,11111222 
TABS,ioos:station:wmo:42046:1,2007-07-04T07:00:00Z,27.8903,-94.0367,2.0,35.63,11111222 
TABS,ioos:station:wmo:42046:1,2007-07-04T07:30:00Z,27.8903,-94.0367,2.0,35.64,11111222 
TABS,ioos:station:wmo:42046:1,2007-07-04T08:00:00Z,27.8903,-94.0367,2.0,35.64,11111222 
TABS,ioos:station:wmo:42046:1,2007-07-04T08:30:00Z,27.8903,-94.0367,2.0,35.61,11111222 
TABS,ioos:station:wmo:42046:1,2007-07-04T09:00:00Z,27.8903,-94.0367,2.0,35.62,11111222 
TABS,ioos:station:wmo:42046:1,2007-07-04T09:30:00Z,27.8903,-94.0367,2.0,35.64,11111222 
TABS,ioos:station:wmo:42046:1,2007-07-04T10:00:00Z,27.8903,-94.0367,2.0,35.62,11111222 
TABS,ioos:station:wmo:42046:1,2007-07-04T10:30:00Z,27.8903,-94.0367,2.0,35.61,11111222 
TABS,ioos:station:wmo:42046:1,2007-07-04T11:00:00Z,27.8903,-94.0367,2.0,35.59,11111222 
TABS,ioos:station:wmo:42046:1,2007-07-04T11:30:00Z,27.8903,-94.0367,2.0,35.61,11111222 
TABS,ioos:station:wmo:42046:1,2007-07-04T12:00:00Z,27.8903,-94.0367,2.0,35.62,11111222 
TABS,ioos:station:wmo:42046:1,2007-07-04T12:30:00Z,27.8903,-94.0367,2.0,35.63,11111222 
TABS,ioos:station:wmo:42046:1,2007-07-04T13:00:00Z,27.8903,-94.0367,2.0,35.62,11111222 
TABS,ioos:station:wmo:42046:1,2007-07-04T13:30:00Z,27.8903,-94.0367,2.0,35.61,11111222 
TABS,ioos:station:wmo:42046:1,2007-07-04T14:30:00Z,27.8903,-94.0367,2.0,35.61,11111222 
TABS,ioos:station:wmo:42046:1,2007-07-04T15:00:00Z,27.8903,-94.0367,2.0,35.63,11111222 
TABS,ioos:station:wmo:42046:1,2007-07-04T15:30:00Z,27.8903,-94.0367,2.0,35.64,11111222 
TABS,ioos:station:wmo:42046:1,2007-07-04T16:00:00Z,27.8903,-94.0367,2.0,35.64,11111222 
TABS,ioos:station:wmo:42046:1,2007-07-04T16:30:00Z,27.8903,-94.0367,2.0,35.64,11111222 
TABS,ioos:station:wmo:42046:1,2007-07-04T17:00:00Z,27.8903,-94.0367,2.0,35.64,11111222 
TABS,ioos:station:wmo:42046:1,2007-07-04T17:30:00Z,27.8903,-94.0367,2.0,35.63,11111222 
TABS,ioos:station:wmo:42046:1,2007-07-04T18:00:00Z,27.8903,-94.0367,2.0,35.63,11111222 
TABS,ioos:station:wmo:42046:1,2007-07-04T18:30:00Z,27.8903,-94.0367,2.0,35.63,11111222 
TABS,ioos:station:wmo:42046:1,2007-07-04T19:00:00Z,27.8903,-94.0367,2.0,35.63,11111222 
TABS,ioos:station:wmo:42046:1,2007-07-04T19:30:00Z,27.8903,-94.0367,2.0,35.63,11111222 
TABS,ioos:station:wmo:42046:1,2007-07-04T20:00:00Z,27.8903,-94.0367,2.0,35.66,11111222 
TABS,ioos:station:wmo:42046:1,2007-07-04T20:30:00Z,27.8903,-94.0367,2.0,35.58,11111222 
TABS,ioos:station:wmo:42046:1,2007-07-04T21:00:00Z,27.8903,-94.0367,2.0,35.57,11111222 
TABS,ioos:station:wmo:42046:1,2007-07-04T21:30:00Z,27.8903,-94.0367,2.0,35.56,11111222 
TABS,ioos:station:wmo:42046:1,2007-07-04T22:00:00Z,27.8903,-94.0367,2.0,35.55,11111222 
TABS,ioos:station:wmo:42046:1,2007-07-04T22:30:00Z,27.8903,-94.0367,2.0,35.57,11111222 
TABS,ioos:station:wmo:42046:1,2007-07-04T23:00:00Z,27.8903,-94.0367,2.0,35.54,11111222 
TABS,ioos:station:wmo:42046:1,2007-07-04T23:30:00Z,27.8903,-94.0367,2.0,35.52,11111222 
TABS,ioos:station:wmo:42046:1,2007-07-05T00:00:00Z,27.8903,-94.0367,2.0,35.49,11111222 
TABS,ioos:station:wmo:42046:1,2007-07-05T00:30:00Z,27.8903,-94.0367,2.0,35.45,11111222 
TABS,ioos:station:wmo:42046:1,2007-07-05T01:00:00Z,27.8903,-94.0367,2.0,35.48,11111222 
TABS,ioos:station:wmo:42046:1,2007-07-05T01:30:00Z,27.8903,-94.0367,2.0,35.46,11111222 
TABS,ioos:station:wmo:42046:1,2007-07-05T02:00:00Z,27.8903,-94.0367,2.0,35.43,11111222 
TABS,ioos:station:wmo:42046:1,2007-07-05T02:30:00Z,27.8903,-94.0367,2.0,35.42,11111222 
TABS,ioos:station:wmo:42046:1,2007-07-05T03:30:00Z,27.8903,-94.0367,2.0,35.41,11111222 
TABS,ioos:station:wmo:42046:1,2007-07-05T04:00:00Z,27.8903,-94.0367,2.0,35.37,11111222 
TABS,ioos:station:wmo:42046:1,2007-07-05T04:30:00Z,27.8903,-94.0367,2.0,35.36,11111222 
TABS,ioos:station:wmo:42046:1,2007-07-05T05:00:00Z,27.8903,-94.0367,2.0,35.34,11111222 
TABS,ioos:station:wmo:42046:1,2007-07-05T05:30:00Z,27.8903,-94.0367,2.0,35.33,11111222 
TABS,ioos:station:wmo:42046:1,2007-07-05T06:00:00Z,27.8903,-94.0367,2.0,35.33,11111222 
TABS,ioos:station:wmo:42046:1,2007-07-05T06:30:00Z,27.8903,-94.0367,2.0,35.36,11111222 
TABS,ioos:station:wmo:42046:1,2007-07-05T07:00:00Z,27.8903,-94.0367,2.0,35.38,11111222 
TABS,ioos:station:wmo:42046:1,2007-07-05T07:30:00Z,27.8903,-94.0367,2.0,35.37,11111222 
TABS,ioos:station:wmo:42046:1,2007-07-05T08:00:00Z,27.8903,-94.0367,2.0,35.37,11111222 
TABS,ioos:station:wmo:42046:1,2007-07-05T08:30:00Z,27.8903,-94.0367,2.0,35.39,11111222 
TABS,ioos:station:wmo:42046:1,2007-07-05T09:00:00Z,27.8903,-94.0367,2.0,35.4,11111222 
TABS,ioos:station:wmo:42046:1,2007-07-05T09:30:00Z,27.8903,-94.0367,2.0,35.42,11111222 
TABS,ioos:station:wmo:42046:1,2007-07-05T10:00:00Z,27.8903,-94.0367,2.0,35.42,11111222 
TABS,ioos:station:wmo:42046:1,2007-07-05T10:30:00Z,27.8903,-94.0367,2.0,35.42,11111222 
TABS,ioos:station:wmo:42046:1,2007-07-05T11:00:00Z,27.8903,-94.0367,2.0,35.45,11111222 
TABS,ioos:station:wmo:42046:1,2007-07-05T11:30:00Z,27.8903,-94.0367,2.0,35.48,11111222 
TABS,ioos:station:wmo:42046:1,2007-07-05T12:00:00Z,27.8903,-94.0367,2.0,35.49,11111222 
TABS,ioos:station:wmo:42046:1,2007-07-05T12:30:00Z,27.8903,-94.0367,2.0,35.51,11111222 
TABS,ioos:station:wmo:42046:1,2007-07-05T13:00:00Z,27.8903,-94.0367,2.0,35.54,11111222 
TABS,ioos:station:wmo:42046:1,2007-07-05T13:30:00Z,27.8903,-94.0367,2.0,35.55,11111222 
TABS,ioos:station:wmo:42046:1,2007-07-05T14:00:00Z,27.8903,-94.0367,2.0,35.57,11111222 
TABS,ioos:station:wmo:42046:1,2007-07-05T14:30:00Z,27.8903,-94.0367,2.0,35.61,11111222 
TABS,ioos:station:wmo:42046:1,2007-07-05T15:00:00Z,27.8903,-94.0367,2.0,35.61,11111222 
TABS,ioos:station:wmo:42046:1,2007-07-05T15:30:00Z,27.8903,-94.0367,2.0,35.61,11111222 
TABS,ioos:station:wmo:42046:1,2007-07-05T16:00:00Z,27.8903,-94.0367,2.0,35.63,11111222 
TABS,ioos:station:wmo:42046:1,2007-07-05T16:30:00Z,27.8903,-94.0367,2.0,35.63,11111222 
TABS,ioos:station:wmo:42046:1,2007-07-05T17:00:00Z,27.8903,-94.0367,2.0,35.66,11111222 
TABS,ioos:station:wmo:42046:1,2007-07-05T17:30:00Z,27.8903,-94.0367,2.0,35.65,11111222 
TABS,ioos:station:wmo:42046:1,2007-07-05T18:00:00Z,27.8903,-94.0367,2.0,35.65,11111222 
TABS,ioos:station:wmo:42046:1,2007-07-05T18:30:00Z,27.8903,-94.0367,2.0,35.64,11111222 
TABS,ioos:station:wmo:42046:1,2007-07-05T19:00:00Z,27.8903,-94.0367,2.0,35.61,11111222 
TABS,ioos:station:wmo:42046:1,2007-07-05T19:30:00Z,27.8903,-94.0367,2.0,35.62,11111222 
TABS,ioos:station:wmo:42046:1,2007-07-05T20:00:00Z,27.8903,-94.0367,2.0,35.6,11111222 
TABS,ioos:station:wmo:42046:1,2007-07-05T20:30:00Z,27.8903,-94.0367,2.0,35.6,11111222 
TABS,ioos:station:wmo:42046:1,2007-07-05T21:00:00Z,27.8903,-94.0367,2.0,35.58,11111222 
TABS,ioos:station:wmo:42046:1,2007-07-05T21:30:00Z,27.8903,-94.0367,2.0,35.58,11111222 
TABS,ioos:station:wmo:42046:1,2007-07-05T22:00:00Z,27.8903,-94.0367,2.0,35.62,11111222 
TABS,ioos:station:wmo:42046:1,2007-07-05T22:30:00Z,27.8903,-94.0367,2.0,35.59,11111222 
TABS,ioos:station:wmo:42046:1,2007-07-05T23:00:00Z,27.8903,-94.0367,2.0,35.59,11111222 
TABS,ioos:station:wmo:42046:1,2007-07-05T23:30:00Z,27.8903,-94.0367,2.0,35.51,11111222 
TABS,ioos:station:wmo:42046:1,2007-07-06T00:00:00Z,27.8903,-94.0367,2.0,35.52,11111222 
TABS,ioos:station:wmo:42046:1,2007-07-06T00:30:00Z,27.8903,-94.0367,2.0,35.46,11111222 
TABS,ioos:station:wmo:42046:1,2007-07-06T01:00:00Z,27.8903,-94.0367,2.0,35.46,11111222 
TABS,ioos:station:wmo:42046:1,2007-07-06T01:30:00Z,27.8903,-94.0367,2.0,35.46,11111222 
TABS,ioos:station:wmo:42046:1,2007-07-06T02:00:00Z,27.8903,-94.0367,2.0,35.48,11111222 
TABS,ioos:station:wmo:42046:1,2007-07-06T02:30:00Z,27.8903,-94.0367,2.0,35.49,11111222 
TABS,ioos:station:wmo:42046:1,2007-07-06T03:00:00Z,27.8903,-94.0367,2.0,35.49,11111222 
TABS,ioos:station:wmo:42046:1,2007-07-06T03:30:00Z,27.8903,-94.0367,2.0,35.41,11111222 
TABS,ioos:station:wmo:42046:1,2007-07-06T04:00:00Z,27.8903,-94.0367,2.0,35.4,11111222 
TABS,ioos:station:wmo:42046:1,2007-07-06T04:30:00Z,27.8903,-94.0367,2.0,35.42,11111222 
TABS,ioos:station:wmo:42046:1,2007-07-06T05:00:00Z,27.8903,-94.0367,2.0,35.4,11111222 
TABS,ioos:station:wmo:42046:1,2007-07-06T05:30:00Z,27.8903,-94.0367,2.0,35.38,11111222 
TABS,ioos:station:wmo:42046:1,2007-07-06T06:00:00Z,27.8903,-94.0367,2.0,35.36,11111222 
TABS,ioos:station:wmo:42046:1,2007-07-06T06:30:00Z,27.8903,-94.0367,2.0,35.35,11111222 
TABS,ioos:station:wmo:42046:1,2007-07-06T07:00:00Z,27.8903,-94.0367,2.0,35.34,11111222 
TABS,ioos:station:wmo:42046:1,2007-07-06T07:30:00Z,27.8903,-94.0367,2.0,35.35,11111222 
TABS,ioos:station:wmo:42046:1,2007-07-06T08:00:00Z,27.8903,-94.0367,2.0,35.35,11111222 
TABS,ioos:station:wmo:42046:1,2007-07-06T08:30:00Z,27.8903,-94.0367,2.0,35.35,11111222 
TABS,ioos:station:wmo:42046:1,2007-07-06T09:00:00Z,27.8903,-94.0367,2.0,35.36,11111222 
TABS,ioos:station:wmo:42046:1,2007-07-06T09:30:00Z,27.8903,-94.0367,2.0,35.36,11111222 
TABS,ioos:station:wmo:42046:1,2007-07-06T10:00:00Z,27.8903,-94.0367,2.0,35.37,11111222 
TABS,ioos:station:wmo:42046:1,2007-07-06T10:30:00Z,27.8903,-94.0367,2.0,35.37,11111222 
TABS,ioos:station:wmo:42046:1,2007-07-06T11:00:00Z,27.8903,-94.0367,2.0,35.38,11111222 
TABS,ioos:station:wmo:42046:1,2007-07-06T11:30:00Z,27.8903,-94.0367,2.0,35.41,11111222 
TABS,ioos:station:wmo:42046:1,2007-07-06T12:00:00Z,27.8903,-94.0367,2.0,35.43,11111222 
TABS,ioos:station:wmo:42046:1,2007-07-06T13:00:00Z,27.8903,-94.0367,2.0,35.45,11111222 
TABS,ioos:station:wmo:42046:1,2007-07-06T13:30:00Z,27.8903,-94.0367,2.0,35.45,11111222 
TABS,ioos:station:wmo:42046:1,2007-07-06T14:00:00Z,27.8903,-94.0367,2.0,35.45,11111222 
TABS,ioos:station:wmo:42046:1,2007-07-06T14:30:00Z,27.8903,-94.0367,2.0,35.45,11111222 
TABS,ioos:station:wmo:42046:1,2007-07-06T15:00:00Z,27.8903,-94.0367,2.0,35.43,11111222 
TABS,ioos:station:wmo:42046:1,2007-07-06T15:30:00Z,27.8903,-94.0367,2.0,35.42,11111222 
TABS,ioos:station:wmo:42046:1,2007-07-06T16:00:00Z,27.8903,-94.0367,2.0,35.45,11111222 
TABS,ioos:station:wmo:42046:1,2007-07-06T16:30:00Z,27.8903,-94.0367,2.0,35.43,11111222 
TABS,ioos:station:wmo:42046:1,2007-07-06T17:00:00Z,27.8903,-94.0367,2.0,35.47,11111222 
TABS,ioos:station:wmo:42046:1,2007-07-06T17:30:00Z,27.8903,-94.0367,2.0,35.49,11111222 